Time,TemperatureF,DewpointF,PressureIn,WindDirection,WindDirectionDegrees,WindSpeedMPH,WindSpeedGustMPH,Humidity,HourlyPrecipIn,Conditions,Clouds,dailyrainin,SoftwareType,DateUTC
2013-01-30 00:02:00,53.0,51.0,-100.00,West,270,4.0,8.0,94,-99.99,,,-99.99,,2013-01-30 06:02:00,
2013-01-30 00:11:00,52.0,51.0,-100.00,West,280,4.0,10.0,94,-99.99,,,-99.99,,2013-01-30 06:11:00,
2013-01-30 00:21:00,52.0,50.0,-100.00,WNW,290,5.0,9.0,94,-99.99,,,-99.99,,2013-01-30 06:21:00,
2013-01-30 00:32:00,52.0,50.0,-100.00,WNW,290,5.0,9.0,94,-99.99,,,-99.99,,2013-01-30 06:32:00,
2013-01-30 00:42:00,52.0,50.0,-100.00,WNW,300,4.0,9.0,94,-99.99,,,-99.99,,2013-01-30 06:42:00,
2013-01-30 00:52:00,52.0,50.0,-100.00,WNW,300,4.0,9.0,94,-99.99,,,-99.99,,2013-01-30 06:52:00,
2013-01-30 01:02:00,52.0,50.0,-100.00,WNW,300,4.0,9.0,94,-99.99,,,-99.99,,2013-01-30 07:02:00,
2013-01-30 01:11:00,52.0,50.0,-100.00,NW,305,7.0,10.0,94,-99.99,,,-99.99,,2013-01-30 07:11:00,
2013-01-30 01:21:00,45.0,43.0,-100.00,NW,315,8.0,23.0,95,-99.99,,,-99.99,,2013-01-30 07:21:00,
2013-01-30 01:32:00,45.0,43.0,-100.00,NW,315,8.0,23.0,95,-99.99,,,-99.99,,2013-01-30 07:32:00,
2013-01-30 01:42:00,44.0,43.0,-100.00,NW,315,6.0,13.0,95,-99.99,,,-99.99,,2013-01-30 07:42:00,
2013-01-30 01:52:00,44.0,42.0,-100.00,NW,310,4.0,12.0,95,-99.99,,,-99.99,,2013-01-30 07:52:00,
2013-01-30 02:01:00,44.0,42.0,-100.00,NW,310,4.0,12.0,95,-99.99,,,-99.99,,2013-01-30 08:01:00,
2013-01-30 02:11:00,44.0,42.0,-100.00,NW,315,6.0,11.0,95,-99.99,,,-99.99,,2013-01-30 08:11:00,
2013-01-30 02:21:00,43.0,42.0,-100.00,NW,315,5.0,9.0,95,-99.99,,,-99.99,,2013-01-30 08:21:00,
2013-01-30 02:32:00,43.0,42.0,-100.00,NW,315,5.0,9.0,95,-99.99,,,-99.99,,2013-01-30 08:32:00,
2013-01-30 02:42:00,43.0,41.0,-100.00,NW,315,4.0,7.0,95,-99.99,,,-99.99,,2013-01-30 08:42:00,
2013-01-30 02:52:00,42.0,41.0,-100.00,NW,315,4.0,9.0,95,-99.99,,,-99.99,,2013-01-30 08:52:00,
2013-01-30 03:01:00,42.0,41.0,-100.00,NW,315,4.0,9.0,95,-99.99,,,-99.99,,2013-01-30 09:01:00,
2013-01-30 03:11:00,42.0,41.0,-100.00,NW,315,7.0,9.0,95,-99.99,,,-99.99,,2013-01-30 09:11:00,
2013-01-30 03:21:00,42.0,41.0,-100.00,NW,315,4.0,9.0,95,-99.99,,,-99.99,,2013-01-30 09:21:00,
2013-01-30 03:32:00,42.0,41.0,-100.00,NW,315,4.0,9.0,95,-99.99,,,-99.99,,2013-01-30 09:32:00,
2013-01-30 03:42:00,42.0,41.0,-100.00,NW,320,6.0,10.0,95,-99.99,,,-99.99,,2013-01-30 09:42:00,
2013-01-30 03:52:00,41.0,40.0,-100.00,NW,325,5.0,11.0,95,-99.99,,,-99.99,,2013-01-30 09:52:00,
2013-01-30 04:01:00,41.0,40.0,-100.00,NW,325,4.0,9.0,95,-99.99,,,-99.99,,2013-01-30 10:01:00,
2013-01-30 04:11:00,41.0,40.0,-100.00,NW,325,4.0,9.0,95,-99.99,,,-99.99,,2013-01-30 10:11:00,
2013-01-30 04:21:00,41.0,39.0,-100.00,NNW,330,4.0,14.0,95,-99.99,,,-99.99,,2013-01-30 10:21:00,
2013-01-30 04:32:00,41.0,39.0,-100.00,NNW,330,4.0,14.0,95,-99.99,,,-99.99,,2013-01-30 10:32:00,
2013-01-30 04:42:00,41.0,39.0,-100.00,NNW,330,4.0,14.0,95,-99.99,,,-99.99,,2013-01-30 10:42:00,
2013-01-30 04:52:00,41.0,40.0,-100.00,North,350,2.0,9.0,95,-99.99,,,-99.99,,2013-01-30 10:52:00,
2013-01-30 05:02:00,41.0,40.0,-100.00,North,350,2.0,9.0,95,-99.99,,,-99.99,,2013-01-30 11:02:00,
2013-01-30 05:11:00,41.0,40.0,-100.00,North,350,4.0,6.0,95,-99.99,,,-99.99,,2013-01-30 11:11:00,
2013-01-30 05:22:00,41.0,40.0,-100.00,North,355,1.0,4.0,95,-99.99,,,-99.99,,2013-01-30 11:22:00,
2013-01-30 05:33:00,41.0,40.0,-100.00,North,355,1.0,4.0,95,-99.99,,,-99.99,,2013-01-30 11:33:00,
2013-01-30 05:42:00,41.0,40.0,-100.00,North,355,1.0,4.0,95,-99.99,,,-99.99,,2013-01-30 11:42:00,
2013-01-30 05:52:00,41.0,40.0,-100.00,North,355,0.0,2.0,95,-99.99,,,-99.99,,2013-01-30 11:52:00,
2013-01-30 06:02:00,41.0,40.0,-100.00,North,355,0.0,2.0,95,-99.99,,,-99.99,,2013-01-30 12:02:00,
2013-01-30 06:12:00,41.0,40.0,-100.00,North,355,0.0,2.0,95,-99.99,,,-99.99,,2013-01-30 12:12:00,
2013-01-30 06:22:00,41.0,40.0,-100.00,North,355,0.0,2.0,95,-99.99,,,-99.99,,2013-01-30 12:22:00,
2013-01-30 06:33:00,41.0,40.0,-100.00,North,355,0.0,2.0,95,-99.99,,,-99.99,,2013-01-30 12:33:00,
2013-01-30 06:42:00,41.0,40.0,-100.00,North,355,2.0,3.0,95,-99.99,,,-99.99,,2013-01-30 12:42:00,
2013-01-30 07:03:00,41.0,40.0,-100.00,North,355,0.0,2.0,95,-99.99,,,-99.99,,2013-01-30 13:03:00,
2013-01-30 07:12:00,41.0,40.0,-100.00,North,355,1.0,2.0,95,-99.99,,,-99.99,,2013-01-30 13:12:00,
2013-01-30 07:23:00,42.0,40.0,-100.00,North,355,0.0,2.0,95,-99.99,,,-99.99,,2013-01-30 13:23:00,
2013-01-30 07:33:00,42.0,40.0,-100.00,North,355,0.0,2.0,95,-99.99,,,-99.99,,2013-01-30 13:33:00,
2013-01-30 07:42:00,42.0,40.0,-100.00,NNW,345,4.0,7.0,95,-99.99,,,-99.99,,2013-01-30 13:42:00,
2013-01-30 07:53:00,42.0,40.0,-100.00,NNW,345,3.0,6.0,95,-99.99,,,-99.99,,2013-01-30 13:53:00,
2013-01-30 08:02:00,42.0,40.0,-100.00,NNW,345,3.0,6.0,95,-99.99,,,-99.99,,2013-01-30 14:02:00,
2013-01-30 08:12:00,42.0,40.0,-100.00,WSW,240,4.0,7.0,95,-99.99,,,-99.99,,2013-01-30 14:12:00,
2013-01-30 08:23:00,42.0,41.0,-100.00,WNW,300,4.0,7.0,95,-99.99,,,-99.99,,2013-01-30 14:23:00,
2013-01-30 08:33:00,42.0,41.0,-100.00,WNW,300,4.0,7.0,95,-99.99,,,-99.99,,2013-01-30 14:33:00,
2013-01-30 08:42:00,43.0,42.0,-100.00,North,350,5.0,10.0,95,-99.99,,,-99.99,,2013-01-30 14:42:00,
2013-01-30 08:53:00,43.0,42.0,-100.00,North,350,18.0,33.0,95,-99.99,,,-99.99,,2013-01-30 14:53:00,
2013-01-30 09:03:00,43.0,42.0,-100.00,North,350,18.0,33.0,95,-99.99,,,-99.99,,2013-01-30 15:03:00,
2013-01-30 09:12:00,41.0,40.0,-100.00,North,350,16.0,25.0,95,-99.99,,,-99.99,,2013-01-30 15:12:00,
2013-01-30 09:23:00,39.0,38.0,-100.00,North,355,10.0,29.0,95,-99.99,,,-99.99,,2013-01-30 15:23:00,
2013-01-30 09:33:00,39.0,38.0,-100.00,North,355,10.0,29.0,95,-99.99,,,-99.99,,2013-01-30 15:33:00,
2013-01-30 09:43:00,37.0,36.0,-100.00,North,355,18.0,24.0,95,-99.99,,,-99.99,,2013-01-30 15:43:00,
2013-01-30 09:53:00,38.0,36.0,-100.00,North,355,10.0,19.0,95,-99.99,,,-99.99,,2013-01-30 15:53:00,
2013-01-30 10:03:00,38.0,36.0,-100.00,North,355,10.0,19.0,95,-99.99,,,-99.99,,2013-01-30 16:03:00,
2013-01-30 10:12:00,38.0,37.0,-100.00,North,355,11.0,18.0,95,-99.99,,,-99.99,,2013-01-30 16:12:00,
2013-01-30 10:23:00,38.0,36.0,-100.00,North,355,10.0,16.0,95,-99.99,,,-99.99,,2013-01-30 16:23:00,
2013-01-30 10:32:00,38.0,36.0,-100.00,North,355,10.0,16.0,95,-99.99,,,-99.99,,2013-01-30 16:32:00,
2013-01-30 10:42:00,37.0,35.0,-100.00,North,355,12.0,17.0,94,-99.99,,,-99.99,,2013-01-30 16:42:00,
2013-01-30 10:52:00,37.0,35.0,-100.00,North,355,14.0,19.0,94,-99.99,,,-99.99,,2013-01-30 16:52:00,
2013-01-30 11:02:00,37.0,35.0,-100.00,North,355,14.0,19.0,94,-99.99,,,-99.99,,2013-01-30 17:02:00,
2013-01-30 11:12:00,36.0,35.0,-100.00,North,355,14.0,26.0,94,-99.99,,,-99.99,,2013-01-30 17:12:00,
2013-01-30 11:23:00,36.0,34.0,-100.00,North,355,14.0,27.0,93,-99.99,,,-99.99,,2013-01-30 17:23:00,
2013-01-30 11:33:00,36.0,34.0,-100.00,North,355,14.0,27.0,93,-99.99,,,-99.99,,2013-01-30 17:33:00,
2013-01-30 11:42:00,36.0,34.0,-100.00,North,355,13.0,29.0,93,-99.99,,,-99.99,,2013-01-30 17:42:00,
2013-01-30 11:53:00,36.0,34.0,-100.00,North,355,12.0,26.0,92,-99.99,,,-99.99,,2013-01-30 17:53:00,
2013-01-30 12:02:00,36.0,34.0,-100.00,North,355,12.0,26.0,92,-99.99,,,-99.99,,2013-01-30 18:02:00,
2013-01-30 12:12:00,36.0,34.0,-100.00,North,355,14.0,27.0,92,-99.99,,,-99.99,,2013-01-30 18:12:00,
2013-01-30 12:23:00,36.0,34.0,-100.00,North,355,18.0,26.0,92,-99.99,,,-99.99,,2013-01-30 18:23:00,
2013-01-30 12:33:00,36.0,34.0,-100.00,North,355,18.0,26.0,92,-99.99,,,-99.99,,2013-01-30 18:33:00,
2013-01-30 12:42:00,36.0,34.0,-100.00,North,355,11.0,22.0,92,-99.99,,,-99.99,,2013-01-30 18:42:00,
2013-01-30 12:53:00,35.0,33.0,-100.00,North,355,17.0,26.0,91,-99.99,,,-99.99,,2013-01-30 18:53:00,
2013-01-30 13:03:00,35.0,33.0,-100.00,North,355,17.0,26.0,91,-99.99,,,-99.99,,2013-01-30 19:03:00,
2013-01-30 13:12:00,35.0,32.0,-100.00,North,355,16.0,24.0,90,-99.99,,,-99.99,,2013-01-30 19:12:00,
2013-01-30 13:22:00,34.0,31.0,-100.00,North,355,18.0,26.0,89,-99.99,,,-99.99,,2013-01-30 19:22:00,
2013-01-30 13:32:00,34.0,31.0,-100.00,North,355,18.0,26.0,89,-99.99,,,-99.99,,2013-01-30 19:32:00,
2013-01-30 13:43:00,34.0,30.0,-100.00,North,355,15.0,31.0,87,-99.99,,,-99.99,,2013-01-30 19:43:00,
2013-01-30 13:53:00,33.0,29.0,-100.00,North,355,20.0,32.0,86,-99.99,,,-99.99,,2013-01-30 19:53:00,
2013-01-30 14:03:00,33.0,29.0,-100.00,North,355,20.0,32.0,86,-99.99,,,-99.99,,2013-01-30 20:03:00,
2013-01-30 14:12:00,33.0,28.0,-100.00,North,355,27.0,37.0,84,-99.99,,,-99.99,,2013-01-30 20:12:00,
2013-01-30 14:22:00,33.0,28.0,-100.00,North,355,24.0,38.0,84,-99.99,,,-99.99,,2013-01-30 20:22:00,
2013-01-30 14:33:00,33.0,28.0,-100.00,North,355,24.0,38.0,84,-99.99,,,-99.99,,2013-01-30 20:33:00,
2013-01-30 14:42:00,33.0,28.0,-100.00,North,355,24.0,38.0,84,-99.99,,,-99.99,,2013-01-30 20:42:00,
2013-01-30 14:53:00,32.0,29.0,-100.00,North,355,25.0,34.0,88,-99.99,,,-99.99,,2013-01-30 20:53:00,
2013-01-30 15:03:00,32.0,29.0,-100.00,North,355,25.0,34.0,88,-99.99,,,-99.99,,2013-01-30 21:03:00,
2013-01-30 15:12:00,30.0,27.0,-100.00,North,355,26.0,40.0,86,-99.99,,,-99.99,,2013-01-30 21:12:00,
2013-01-30 15:23:00,29.0,25.0,-100.00,North,355,29.0,42.0,83,-99.99,,,-99.99,,2013-01-30 21:23:00,
2013-01-30 15:32:00,29.0,25.0,-100.00,North,355,29.0,42.0,83,-99.99,,,-99.99,,2013-01-30 21:32:00,
2013-01-30 15:42:00,29.0,24.0,-100.00,North,355,27.0,42.0,80,-99.99,,,-99.99,,2013-01-30 21:42:00,
2013-01-30 15:53:00,29.0,24.0,-100.00,North,355,23.0,38.0,79,-99.99,,,-99.99,,2013-01-30 21:53:00,
2013-01-30 16:03:00,29.0,24.0,-100.00,North,355,23.0,38.0,79,-99.99,,,-99.99,,2013-01-30 22:03:00,
2013-01-30 16:12:00,29.0,23.0,-100.00,North,355,20.0,37.0,78,-99.99,,,-99.99,,2013-01-30 22:12:00,
2013-01-30 16:22:00,29.0,23.0,-100.00,North,355,24.0,38.0,78,-99.99,,,-99.99,,2013-01-30 22:22:00,
2013-01-30 16:32:00,29.0,23.0,-100.00,North,355,24.0,38.0,78,-99.99,,,-99.99,,2013-01-30 22:32:00,
2013-01-30 16:42:00,29.0,23.0,-100.00,North,355,18.0,36.0,77,-99.99,,,-99.99,,2013-01-30 22:42:00,
2013-01-30 16:53:00,29.0,23.0,-100.00,North,355,24.0,32.0,77,-99.99,,,-99.99,,2013-01-30 22:53:00,
2013-01-30 17:02:00,29.0,23.0,-100.00,North,355,24.0,32.0,77,-99.99,,,-99.99,,2013-01-30 23:02:00,
2013-01-30 17:12:00,29.0,23.0,-100.00,North,355,26.0,34.0,78,-99.99,,,-99.99,,2013-01-30 23:12:00,
2013-01-30 17:22:00,28.0,22.0,-100.00,North,355,28.0,39.0,78,-99.99,,,-99.99,,2013-01-30 23:22:00,
2013-01-30 17:32:00,28.0,22.0,-100.00,North,355,28.0,39.0,78,-99.99,,,-99.99,,2013-01-30 23:32:00,
2013-01-30 17:42:00,28.0,22.0,-100.00,North,355,19.0,34.0,78,-99.99,,,-99.99,,2013-01-30 23:42:00,
2013-01-30 17:52:00,27.0,21.0,-100.00,North,355,27.0,37.0,78,-99.99,,,-99.99,,2013-01-30 23:52:00,
2013-01-30 18:02:00,27.0,21.0,-100.00,North,355,27.0,37.0,78,-99.99,,,-99.99,,2013-01-31 00:02:00,
2013-01-30 18:11:00,26.0,20.0,-100.00,North,355,24.0,36.0,77,-99.99,,,-99.99,,2013-01-31 00:11:00,
2013-01-30 18:22:00,26.0,20.0,-100.00,North,355,22.0,34.0,77,-99.99,,,-99.99,,2013-01-31 00:22:00,
2013-01-30 18:32:00,26.0,20.0,-100.00,North,355,22.0,34.0,77,-99.99,,,-99.99,,2013-01-31 00:32:00,
2013-01-30 18:42:00,26.0,19.0,-100.00,North,350,23.0,43.0,76,-99.99,,,-99.99,,2013-01-31 00:42:00,
2013-01-30 18:53:00,25.0,18.0,-100.00,North,350,24.0,38.0,76,-99.99,,,-99.99,,2013-01-31 00:53:00,
2013-01-30 19:02:00,25.0,18.0,-100.00,North,350,24.0,38.0,76,-99.99,,,-99.99,,2013-01-31 01:02:00,
2013-01-30 19:12:00,25.0,18.0,-100.00,North,350,24.0,37.0,75,-99.99,,,-99.99,,2013-01-31 01:12:00,
2013-01-30 19:21:00,24.0,18.0,-100.00,North,350,21.0,34.0,75,-99.99,,,-99.99,,2013-01-31 01:21:00,
2013-01-30 19:32:00,24.0,18.0,-100.00,North,350,21.0,34.0,75,-99.99,,,-99.99,,2013-01-31 01:32:00,
2013-01-30 19:42:00,24.0,18.0,-100.00,North,350,21.0,34.0,75,-99.99,,,-99.99,,2013-01-31 01:42:00,
2013-01-30 19:52:00,24.0,18.0,-100.00,North,350,20.0,30.0,76,-99.99,,,-99.99,,2013-01-31 01:52:00,
2013-01-30 20:01:00,24.0,18.0,-100.00,North,350,20.0,30.0,76,-99.99,,,-99.99,,2013-01-31 02:01:00,
2013-01-30 20:12:00,23.0,17.0,-100.00,North,350,24.0,40.0,75,-99.99,,,-99.99,,2013-01-31 02:12:00,
2013-01-30 20:21:00,23.0,16.0,-100.00,NNW,345,26.0,36.0,74,-99.99,,,-99.99,,2013-01-31 02:21:00,
2013-01-30 20:32:00,23.0,16.0,-100.00,NNW,345,26.0,36.0,74,-99.99,,,-99.99,,2013-01-31 02:32:00,
2013-01-30 20:42:00,23.0,16.0,-100.00,NNW,345,26.0,36.0,74,-99.99,,,-99.99,,2013-01-31 02:42:00,
2013-01-30 21:00:00,23.0,16.0,-100.00,NNW,340,21.0,37.0,76,-99.99,,,-99.99,,2013-01-31 03:00:00,
2013-01-30 21:03:00,23.0,17.0,-100.00,NNW,345,22.0,33.0,77,-99.99,,,-99.99,,2013-01-31 03:03:00,
2013-01-30 21:11:00,23.0,16.0,-100.00,NNW,345,19.0,40.0,74,-99.99,,,-99.99,,2013-01-31 03:11:00,
2013-01-30 21:21:00,23.0,16.0,-100.00,NNW,345,25.0,37.0,75,-99.99,,,-99.99,,2013-01-31 03:21:00,
2013-01-30 21:32:00,23.0,16.0,-100.00,NNW,345,25.0,37.0,75,-99.99,,,-99.99,,2013-01-31 03:32:00,
2013-01-30 21:41:00,23.0,16.0,-100.00,NNW,340,21.0,37.0,76,-99.99,,,-99.99,,2013-01-31 03:41:00,
2013-01-30 21:52:00,23.0,16.0,-100.00,NNW,340,21.0,37.0,76,-99.99,,,-99.99,,2013-01-31 03:52:00,
2013-01-30 22:11:00,22.0,15.0,-100.00,NNW,340,19.0,36.0,73,-99.99,,,-99.99,,2013-01-31 04:11:00,
2013-01-30 22:22:00,22.0,16.0,-100.00,NNW,335,16.0,25.0,75,-99.99,,,-99.99,,2013-01-31 04:22:00,
2013-01-30 22:32:00,22.0,16.0,-100.00,NNW,335,16.0,25.0,75,-99.99,,,-99.99,,2013-01-31 04:32:00,
2013-01-30 22:41:00,22.0,16.0,-100.00,NNW,335,17.0,27.0,75,-99.99,,,-99.99,,2013-01-31 04:41:00,
2013-01-30 22:52:00,22.0,16.0,-100.00,NNW,330,16.0,36.0,76,-99.99,,,-99.99,,2013-01-31 04:52:00,
2013-01-30 23:00:00,21.0,14.0,-100.00,NW,325,18.0,31.0,75,-99.99,,,-99.99,,2013-01-31 05:00:00,
2013-01-30 23:03:00,22.0,16.0,-100.00,NNW,330,16.0,36.0,76,-99.99,,,-99.99,,2013-01-31 05:03:00,
2013-01-30 23:11:00,22.0,15.0,-100.00,NW,325,19.0,33.0,74,-99.99,,,-99.99,,2013-01-31 05:11:00,
2013-01-30 23:22:00,21.0,14.0,-100.00,NW,325,21.0,34.0,73,-99.99,,,-99.99,,2013-01-31 05:22:00,
2013-01-30 23:32:00,21.0,14.0,-100.00,NW,325,21.0,34.0,73,-99.99,,,-99.99,,2013-01-31 05:32:00,
2013-01-30 23:42:00,21.0,14.0,-100.00,NW,325,18.0,31.0,75,-99.99,,,-99.99,,2013-01-31 05:42:00,
2013-01-30 23:52:00,21.0,14.0,-100.00,NW,325,18.0,31.0,75,-99.99,,,-99.99,,2013-01-31 05:52:00,